Starlink 31608

operational
NORAD ID: 59397 Int'l Des: 2024-062 Owner: SPXS Country: US Constellation: starlink
LEOCIRCULAR

About Starlink 31608

Description loading...

Live Position

Loading 3D Globe...

Upcoming Passes

Altitude History

Altitude vs Time

uPlot chart will show altitude changes over time

Two-Line Element Set

1 59397U 24062X 26062.00073778 -.00000017 00000-0 11557-4 0 9997
2 59397 53.1601 286.9897 0001217 89.4432 270.6708 15.30194807108592
Epoch: Mar 3, 2026 • Age: 19 hours

Current Status

Altitude 477.9 km
Velocity 7.63 km/s
Sub-Earth Point 38.86°N, 26.04°W
Launch Date Apr 2, 2024
Age 1.9 years
Type internet

Technical Details

Classification Payload
Mass 730.00 kg
Dry Mass 700.00 kg
Total Mass 730.00 kg
Length 0.30 m
Diameter 4.10 m
Span 29.00 m
Shape Box + pan
Manufacturer SPXS
Bus Type Starlink V2M
Phase Status In Orbit
Owner/State SPXS/US

Large Constellations

Loading constellations...